Location: Lourdes
(43.1000°N, 0.0500°W)
Time: 13:10:49
(UTC+00:00)

NOAA 6 - Pass Details

Date: 30 November 2020
Orbit: 773 x 786 km, 98.7° (Epoch: 26 January)

Event Time Altitude Azimuth Distance (km) Brightness Sun altitude
Rises 16:50:25 0° 160° (SSE) 3,254 7.3 -4.7°
Reaches altitude 10° 16:52:44 10° 159° (SSE) 2,328 6.6 -5.1°
Maximum altitude 16:57:52 77° 74° (ENE) 805 4.0 -5.9°
Drops below altitude 10° 17:03:00 10° 349° (N) 2,336 6.4 -6.8°
Sets 17:05:19 0° 348° (NNW) 3,266 7.1 -7.2°
